Location: Langm�hle
(49.1611°N, 7.6725°E)
Time: 07:37:14
(UTC+00:00)

Daily predictions for brighter satellites

Satellite Brightness Start Highest point End
(mag) Time Altitude Azimuth Time Altitude Azimuth Time Altitude Azimuth
H-2A R/B 3.4 16:35:40 10° E 16:38:50 17° NE 16:42:03 10° NNE
Okean O Rocket 1.7 16:35:56 10° SSE 16:40:17 56° ENE 16:44:38 10° N
Cosmos 773 Rocket 4.1 16:35:51 10° NNW 16:40:55 53° ENE 16:45:56 10° SE
SeaSat 1 3.5 16:36:56 10° NNE 16:41:35 42° NW 16:46:13 10° WSW
YAOGAN 6 3.3 16:38:36 10° S 16:42:06 58° W 16:45:41 10° NNW
SMAP 3.0 16:37:38 10° SSE 16:42:17 77° ENE 16:46:57 10° NNW
Cosmos 1626 2.1 16:39:10 10° S 16:42:48 62° E 16:46:29 10° NNE
CZ-4B R/B 3.2 16:38:49 10° SSE 16:44:21 75° ENE 16:50:00 10° NNW
SL-24 R/B 4.2 16:40:33 10° SSE 16:44:51 69° ENE 16:49:31 10° N
AQUARIUS 4.1 16:44:43 10° SSE 16:49:12 78° ENE 16:53:43 10° NNW
Cosmos 2297 Rocket 4.0 16:45:20 10° W 16:49:58 25° NW 16:54:37 10° NNE
Cosmos 1603 3.9 16:44:20 10° NNW 16:50:03 80° WSW 16:55:47 10° SSE
Meteor 2-10 Rocket 4.2 16:45:37 10° N 16:50:41 35° ENE 16:55:34 10° SE
Cosmos 1606 Rocket 3.6 16:51:48 10° N 16:56:08 56° ENE 17:00:27 10° SSE
CZ-2D R/B 4.0 16:53:41 10° SE 16:57:04 30° ENE 17:00:27 10° N
H-2A R/B 2.1 16:53:27 10° NNE 16:57:55 66° ESE 17:02:16 10° S
USA 234 3.8 16:53:16 10° ENE 16:59:25 45° N 17:05:34 10° WNW
YAOGAN 1 3.8 16:56:36 10° ESE 16:59:52 21° ENE 17:03:07 10° NNE
Cosmos 1892 Rocket 4.3 16:56:06 10° SSE 16:59:55 31° E 17:03:45 10° NNE
ATLAS 5 CENTAUR R/B 1.4 16:57:21 10° SW 17:01:23 80° SE 17:05:58 10° NE
CZ-4C R/B 3.1 16:58:41 10° N 17:01:49 65° WNW 17:04:57 10° SSW
FengYun 1-2 T 4.3 16:56:20 10° SSE 17:01:55 84° ENE 17:07:34 10° NNW
Tsikada Rocket 4.4 16:57:15 10° SSW 17:03:32 69° W 17:09:48 10° N
NOAA 12 4.5 16:58:39 10° S 17:03:52 70° WSW 17:09:07 10° NNW
SL-14 R/B 3.2 17:01:25 10° S 17:05:17 85° E 17:09:14 10° N
Helios 1A Rocket 4.3 17:02:46 10° ESE 17:05:44 19° ENE 17:08:42 10° NNE
RESURS DK-1 2.9 17:02:47 10° SW 17:06:53 60° WNW 17:10:59 10° NNE
MOS 1 Rocket 4.1 17:03:33 10° NE 17:07:11 26° E 17:10:45 10° SSE
ATLAS 3B R/B 3.9 17:01:13 10° NW 17:07:52 49° WSW 17:14:46 10° SSE
Cosmos 2228 2.9 17:03:51 10° N 17:08:08 82° E 17:12:25 10° SSE
NOSS 7 (E) 4.3 17:06:03 10° SW 17:09:43 87° NW 17:12:25 13° NE
Cosmos 2142 Rocket 4.4 17:03:58 10° N 17:10:11 81° E 17:16:19 10° SSE
SKYMED 2 4.1 17:09:09 10° NNE 17:13:13 38° E 17:17:16 10° SSE
Meteor 2-5 Rocket 3.7 17:08:39 10° S 17:14:14 90° NW 17:19:48 10° NNE
Cosmos 1538 Rocket 4.0 17:09:30 10° NNW 17:14:39 59° ENE 17:19:44 10° SE
Aureole 3 4.2 17:12:01 10° NNE 17:14:52 21° ENE 17:17:24 10° ESE
CZ-4C R/B 3.0 17:09:55 10° WSW 17:14:56 45° NW 17:21:01 10° NE
CZ-3B R/B 1.8 17:14:17 10° NW 17:16:25 43° NNE 17:20:09 13° E
SJ 16-02 2.6 17:13:52 10° SSE 17:17:10 21° E 17:18:57 17° ENE
Nadezhda 4 Rocket 4.5 17:13:02 10° SSE 17:18:40 37° E 17:24:16 10° NNE
Cosmos 1777 Rocket 4.2 17:15:11 10° S 17:20:18 55° ESE 17:25:28 10° NNE
Cosmos 2263 Rocket 2.4 17:16:32 10° SW 17:22:13 72° WNW 17:27:55 10° NNE
YAOGAN 3 4.5 17:18:17 10° SSE 17:22:37 71° ENE 17:26:59 10° N
Cosmos 1455 2.9 17:22:09 10° N 17:25:34 31° ENE 17:29:00 10° SE
Cosmos 1354 Rocket 4.4 17:21:29 10° SW 17:26:46 65° WNW 17:32:07 10° NNE
Cosmos 2058 Rocket 3.1 17:23:07 10° N 17:27:35 59° ENE 17:32:02 10° SSE
Cosmos 1300 3.7 17:26:07 10° NNW 17:29:49 49° W 17:33:30 10° S
COSMOS 2406 4.5 17:26:37 10° N 17:30:59 21° NE 17:32:43 19° ENE
X-37B 2.9 17:30:30 10° S 17:32:17 14° SSE 17:33:14 13° SE
ARGOS 3.6 17:33:18 10° SE 17:38:09 36° ENE 17:43:02 10° N
Lacrosse 5 1.8 17:35:59 10° NW 17:41:03 78° NNE 17:45:00 17° ESE
CREW DRAGON DEMO-1 DEB 2.6 17:38:14 10° WNW 17:41:07 68° NNE 17:41:52 43° E
NOSS 3-1 (C) 4.3 17:34:22 10° NW 17:41:13 48° NE 17:47:11 18° ESE
Okean 1-7 Rocket 3.7 17:36:57 10° S 17:41:23 55° E 17:45:51 10° NNE
Cosmos 1726 Rocket 4.0 17:38:47 10° NNW 17:43:06 63° W 17:47:25 10° S
ERS-2 2.4 17:42:03 23° NE 17:43:57 45° E 17:47:26 10° S
ISS -2.3 17:41:47 10° SSW 17:44:33 24° SE 17:45:00 23° SE
Cosmos 1939 Rocket 3.6 17:41:10 10° S 17:45:14 56° W 17:49:17 10° NNW
CZ-2C R/B 3.8 17:45:50 22° E 17:45:50 22° E 17:49:47 10° SE
PSLV R/B 4.3 17:43:31 18° NE 17:46:17 43° E 17:50:18 10° S
CSL-04 Debris 4.4 17:43:08 10° SE 17:48:12 44° ENE 17:53:18 10° N
Meteor 1-24 Rocket 4.1 17:43:07 10° SSW 17:48:24 61° WNW 17:53:41 10° N
COSMOS 2455 2.8 17:43:35 10° SSW 17:49:34 71° ESE 17:54:02 19° NE
Cosmos 1626 Rocket 4.0 17:48:36 10° SSE 17:52:38 38° E 17:54:01 30° NE
Cosmos 1833 Rocket 3.7 17:49:41 10° N 17:54:15 24° NE 17:54:41 24° NE
Cosmos 1844 4.1 17:49:20 10° S 17:54:37 42° ESE 17:57:11 27° ENE
Cosmos 2026 Rocket 4.5 17:50:25 10° SSE 17:55:48 34° E 18:01:15 10° NNE
Cosmos 2082 Rocket 3.7 17:52:06 10° N 17:55:55 18° NE 17:55:55 18° NE
IRS-1C Rocket 4.1 17:50:46 10° SSE 17:56:01 82° WSW 18:01:20 10° NNW
CZ-4 R/B 1.3 17:53:22 10° SSE 17:57:29 81° ENE 18:01:33 10° NNW
USA 229 DEB 4.2 17:51:19 10° NW 17:58:09 45° NNE 18:01:49 27° E
USA 229 4.2 17:51:26 10° NW 17:58:15 45° NNE 18:01:52 27° E
NOAA 15 4.5 17:53:36 10° SSE 17:58:50 75° ENE 18:04:07 10° NNW
COSMO-SKYMED 1 2.7 17:57:06 10° N 18:01:26 73° WNW 18:05:46 10° SSW
SL-08 RB Rocket 4.1 18:05:15 38° ENE 18:05:15 38° ENE 18:09:08 10° N
USA 267 4.2 18:04:13 24° ESE 18:05:24 26° SE 18:10:39 10° S
CZ-4B R/B 2.8 18:08:22 10° N 18:11:34 38° WNW 18:14:41 10° SW
Okean-O 2.7 18:09:12 10° S 18:13:37 79° WSW 18:18:06 10° NNW
NOSS 3-1 (A) 4.2 18:06:54 10° NW 18:13:46 48° NE 18:16:57 33° E
CZ-2C R/B 3.8 18:10:01 10° S 18:15:13 57° W 18:20:45 10° NNW
Cosmos 923 Rocket 3.9 18:11:00 10° NNW 18:16:22 85° ENE 18:21:42 10° SSE
Cosmos 1844 Rocket 2.6 18:10:54 10° SSW 18:16:32 74° ESE 18:19:24 30° NE
H-2A R/B 2.0 18:12:36 10° SSE 18:17:35 85° WSW 18:22:44 10° NNW
Cosmos 1689 Rocket 3.9 18:20:00 23° SSW 18:20:00 23° SSW 18:21:15 10° SSW
Meteor 1-21 Rocket 4.0 18:13:41 10° S 18:19:11 76° E 18:24:45 10° NNE
Aureole 2 Rocket 2.6 18:16:51 10° SSW 18:19:28 57° WSW 18:19:28 57° WSW
ATLAS 2AS CENTAUR R/B 4.1 18:13:13 10° W 18:20:25 36° NNW 18:25:30 18° NNE
Cosmos 2195 Rocket 4.5 18:15:04 10° S 18:21:15 60° E 18:27:29 10° NNE
Cosmos 158 Rocket 4.1 18:16:25 10° NNW 18:21:46 81° WSW 18:27:09 10° SSE
Meteor 2-8 Rocket 4.3 18:16:03 10° N 18:22:08 65° ENE 18:28:11 10° SSE
Cosmos 1680 Rocket 3.3 18:18:30 10° NNW 18:23:47 76° ENE 18:26:36 28° SSE
Cosmos 1898 Rocket 4.2 18:20:01 10° S 18:23:42 35° SE 18:23:42 35° SE
Cosmos 1627 Rocket 4.4 18:25:03 10° S 18:31:06 63° E 18:37:18 10° NNE
SAR-Lupe-4 4.0 18:31:27 59° NW 18:31:44 61° WNW 18:35:16 10° SSW
Cosmos 2098 Rocket 4.4 18:25:38 10° SSE 18:32:30 55° E 18:39:42 10° NNE
Cosmos 1602 Rocket 3.9 18:28:20 10° S 18:31:35 49° SSE 18:31:35 49° SSE
Cosmos 1818 3.4 18:28:04 10° SW 18:33:30 86° SE 18:34:52 53° NE
YAOGAN 1 3.4 18:31:27 10° S 18:35:39 49° W 18:39:53 10° NNW
Cosmos 1428 Rocket 4.4 18:29:56 10° S 18:36:07 64° E 18:42:22 10° NNE
CSL-04 Rocket 3.7 18:34:01 10° SSE 18:39:25 82° WSW 18:44:57 10° NNW
Helios 1A Rocket 3.7 18:36:30 10° S 18:40:32 52° W 18:44:37 10° NNW
USA 234 3.3 18:40:20 49° ENE 18:41:53 61° NNE 18:48:19 10° WNW
Iridium 4 Rocket 3.6 18:40:17 10° N 18:46:04 85° W 18:51:24 10° S
Cosmos 1092 Rocket 3.9 18:40:02 10° S 18:46:14 86° W 18:52:27 10° N
ATLAS 5 CENTAUR R/B 3.4 18:43:02 10° W 18:46:36 25° NNW 18:47:38 23° N
Cosmos 1812 Rocket 3.8 18:44:47 10° NNW 18:48:54 68° WNW 18:48:54 68° WNW
Cosmos 2344 4.2 18:44:27 10° NW 18:53:31 78° NE 18:59:35 35° SE
SJ 16-02 2.2 18:51:10 10° SW 18:55:25 48° WNW 18:55:59 45° NW
Cosmos 2112 Rocket 4.3 18:56:00 10° NNW 19:01:12 64° WSW 19:02:18 51° SSW
CZ-4C R/B 4.0 19:00:26 10° WNW 19:05:07 24° N 19:06:30 22° N
Cosmos 2263 Rocket 4.4 19:03:16 10° W 19:07:11 19° NW 19:10:38 12° N
X-37B 4.0 19:05:25 10° SW 19:05:31 11° SW 19:05:31 11° SW
COSMOS 2406 3.7 19:10:21 10° NNW 19:14:48 54° NNW 19:14:48 54° NNW
ARGOS 4.4 19:13:25 10° SSW 19:18:23 38° W 19:23:24 10° NNW
ISS -0.4 19:17:41 10° WSW 19:17:58 12° WSW 19:17:58 12° WSW
Lacrosse 5 3.5 19:19:26 10° WNW 19:23:39 27° SW 19:24:15 26° SW
CZ-2C R/B 3.3 19:27:19 52° WSW 19:27:19 52° WSW 19:31:42 10° SSW
NOSS 3-1 (C) 4.3 19:25:10 10° NW 19:32:34 65° SW 19:34:39 50° S
COSMOS 2455 4.2 19:30:41 10° W 19:36:01 32° NW 19:37:13 29° NNW
Cosmos 1553 Rocket 4.3 19:30:04 10° NNW 19:36:14 65° W 19:36:14 65° W
Cosmos 1833 Rocket 3.9 19:33:10 10° NNW 19:36:25 36° NW 19:36:25 36° NW
USA 281 4.2 19:43:33 35° N 19:43:33 35° N 19:47:12 10° NNW
Cosmos 2082 Rocket 3.9 19:35:26 10° NNW 19:37:48 25° NNW 19:37:48 25° NNW
USA 267 4.1 19:51:34 41° SW 19:51:34 41° SW 19:55:39 10° SW
USA 229 DEB 4.1 19:42:20 10° NW 19:49:18 65° WSW 19:49:18 65° WSW
USA 229 4.1 19:42:26 10° NW 19:49:21 66° WSW 19:49:21 66° WSW
NOSS 3-1 (A) 4.3 19:57:45 10° NW 20:04:27 62° W 20:04:27 62° W
ATLAS 2AS CENTAUR R/B 4.4 20:07:11 10° NW 20:12:56 27° N 20:12:56 27° N
USA 234 4.5 20:27:40 36° WNW 20:27:40 36° WNW 20:31:25 10° WNW
